Weather History for Deming, NM

Change the Weather History Date:

Monday, November 14, 2011

  Actual Average Record
Temperature  
Mean Temperature 54 °F 50 °F  
Max Temperature 65 °F 66 °F 79 °F (1988)
Min Temperature 43 °F 34 °F 25 °F (1972)
Degree Days  
Heating Degree Days 11    
Growing Degree Days 4 (Base 50)    
Moisture  
Dew Point 42 °F    
Average Humidity 67    
Maximum Humidity 93    
Minimum Humidity 40    
Precipitation  
Precipitation 0.00 in 0.02 in 0.87 in (1968)
Month to date precipitation 0.02 0.27  
Year to date precipitation 3.35 10.22  
Sea Level Pressure  
Sea Level Pressure 29.84 in    
Wind  
Wind Speed 8 mph (West)    
Max Wind Speed 16 mph    
Max Gust Speed 21 mph    
Visibility 10 miles    
Events      
T = Trace of Precipitation, MM = Missing Value Source: NWS Daily Summary

Daily Weather History Graph

Daily Weather History Graph

Search for Another Location

Airport:

Trip Planner

Search our weather history database for the weather conditions in past years. The results will help you decide how hot, cold, wet, or windy it might be!

Date:

Astronomy

Nov. 14, 2011 Rise Set
Actual Time 6:38 AM MST 5:11 PM MST
Civil Twilight 6:13 AM MST 5:37 PM MST
Nautical Twilight 5:43 AM MST 6:06 PM MST
Astronomical Twilight 5:14 AM MST 6:35 PM MST
Moon 8:24 PM MST (11/14) 9:55 AM MST (11/14)
Length of Visible Light 11h 24m
Length of Day
10h 32m
Waning Gibbous, 86% of the Moon is Illuminated
Nov 14
Waning Gibbous
Nov 18
Last Quarter
Nov 24
New
Dec 2
First Quarter
Dec 10
Full

Hourly Weather History & Observations

Time (MST) Temp. Windchill Dew Point Humidity Pressure Visibility Wind Dir Wind Speed Gust Speed Precip Events Conditions
12:53 AM 48.9 °F - 46.9 °F 93% 29.86 in - SSW 4.6 mph - N/A   Mostly Cloudy
1:53 AM 48.9 °F - 46.9 °F 93% 29.86 in - Calm Calm - N/A   Overcast
2:53 AM 48.0 °F - 46.9 °F 96% 29.84 in - SW 4.6 mph - N/A   Overcast
3:53 AM 48.0 °F - 46.9 °F 96% 29.85 in - South 3.5 mph - N/A   Overcast
4:53 AM 48.0 °F - 46.9 °F 96% 29.85 in - SSW 4.6 mph - N/A   Overcast
5:16 AM 48.2 °F - 46.4 °F 93% 29.95 in - NW 3.5 mph - N/A   Overcast
5:53 AM 46.0 °F - 43.0 °F 89% 29.84 in - Calm Calm - N/A   Clear
6:53 AM 44.1 °F 40.8 °F 42.1 °F 93% 29.90 in - SSW 5.8 mph - N/A   Clear
7:53 AM 48.0 °F - 44.1 °F 86% 29.88 in 10.0 mi NNW 4.6 mph - N/A   Partly Cloudy
8:53 AM 50.0 °F - 43.0 °F 77% 29.90 in 10.0 mi Calm Calm - N/A   Clear
9:53 AM 57.0 °F - 43.0 °F 59% 29.89 in 10.0 mi West 6.9 mph - N/A   Clear
10:53 AM 59.0 °F - 42.1 °F 53% 29.86 in 10.0 mi WSW 8.1 mph - N/A   Clear
11:53 AM 62.1 °F - 41.0 °F 46% 29.82 in 10.0 mi WSW 8.1 mph - N/A   Scattered Clouds
12:53 PM 61.0 °F - 42.1 °F 50% 29.79 in 10.0 mi West 11.5 mph 16.1 mph N/A   Overcast
1:53 PM 64.0 °F - 41.0 °F 43% 29.75 in 10.0 mi West 12.7 mph 19.6 mph N/A   Mostly Cloudy
2:53 PM 64.9 °F - 39.0 °F 39% 29.73 in 10.0 mi WNW 11.5 mph - N/A   Clear
3:53 PM 63.0 °F - 39.9 °F 43% 29.73 in 10.0 mi WSW 17.3 mph 20.7 mph N/A   Clear
4:53 PM 61.0 °F - 39.9 °F 46% 29.75 in 10.0 mi West 11.5 mph - N/A   Clear
5:53 PM 57.2 °F - 37.4 °F 48% 29.90 in 10.0 mi West 11.5 mph - N/A   Clear
6:53 PM 55.0 °F - 39.0 °F 55% 29.83 in 10.0 mi West 9.2 mph - N/A   Clear
7:53 PM 55.4 °F - 39.2 °F 54% 29.93 in 10.0 mi West 13.8 mph - N/A   Clear
8:53 PM 51.1 °F - 39.0 °F 63% 29.85 in 10.0 mi West 8.1 mph - N/A   Clear
9:53 PM 48.9 °F - 39.0 °F 69% 29.85 in 10.0 mi West 6.9 mph - N/A   Clear
10:53 PM 48.9 °F - 37.9 °F 66% 29.85 in 10.0 mi WNW 8.1 mph - N/A   Clear
11:53 PM 48.9 °F - 37.9 °F 66% 29.84 in 10.0 mi WNW 10.4 mph - N/A   Clear